Погода в Александровке

Россия / Республика Алтай     51°44′00″N   86°06′59″E
темп.,
°C
ветер,
м/с
пор.,
м/с
влажн.,
%
обл.,
%
осадки,
мм/ч
давл.,
гПа
погр.,
м
22 апреля, чт
чт2201:00−7ю1188100 0.0 102834
04:00−9ююв119190 0.0 102914
07:00−7юв1179100 0.0 103133
10:00−3с225762 0.0 1031997
13:00−1ссз335488 0.1 10331630
16:00−1ссз335789 0.1 10341390
19:00−3с347550 0.2 1036712
22:00−6сз1198100 0.1 103917
23 апреля, пт
пт2301:00−5сз1294100 0.9 1038174
04:00−5ссз1296100 0.2 1037258
07:00−4ссз2392100 0.3 1038423
10:00−2ссз2477100 0.1 1039838
13:00−1ссз3481100 0.6 1038912
16:000ссз3473100 0.3 10371007
19:00−1ссз239099 0.8 1037511
22:00−2ссз159898 0.7 1037356
24 апреля, сб
сб2401:00−5зюз1199100 0.9 103615
04:00−4з1197100 0.3 103570
07:00−3з1194100 0.7 1034141
10:00−1сз2384100 0.4 1033686
13:00+1сз2480100 1.3 1032995
16:00+1сз2475100 0.8 1032972
19:00+1сз137967 1.3 1032685
22:00−3ююз119699 0.1 103413
25 апреля, вс
вс2501:00−4ю119997 0.4 103422
04:00−3ю129799 1.2 1034125
07:00−4ю129570 1.6 103576
10:00+2юз017367 0.1 1033820
13:00+4ссз2159100 0.3 10311427
16:00+4ссв216193 0.3 10301279
19:00+3ссв238010 0.4 1030178
22:00−3юв11965 0.0 103310
26 апреля, пн
пн2601:00−4ююв21966 0.0 103221
04:00−4ю22945 0.0 103237
07:00−3ю23875 0.0 103265
10:00+4ю126562 0.0 1029528
13:00+9зюз025146 0.0 10271493
16:00+9ссз225198 0.0 10261340
19:00+6всв117951 0.0 102610
22:000ююв228980 0.0 102917